Location: *
(44.1392°N, 4.8079°E)
Time: 17:45:59
(UTC+00:00)

FENGYUN 1C DEB - Pass Details

Date: 04 February 2022
Orbit: 796 x 905 km, 98.7° (Epoch: 18 May)

Event Time Altitude Azimuth Distance (km) Brightness Sun altitude
Exits shadow 19:21:02 50° 18° (NNE) 1,061 ? -26.5°
Drops below altitude 10° 19:25:08 10° 352° (N) 2,433 ? -27.2°
Sets 19:27:28 0° 349° (N) 3,356 ? -27.7°
